• Em Portugal
  • Lista de países
  • Para 7 dias
  • Temperatura da água
  • Mapas de satélite
  • Mapa do tempo
  • Widgets de tempo
  • user-avatar
    Iniciar Sessão

    Previsão horária em Ghanzi

    Hoje, 25 Fevereiro, Domingo

    Tempo Temperatura Precipitação Vento Pressão Humidade
    00:00 +20°C° 0 mm 4 m/s 714 mmHg 19%
    01:00 +19°C° 0 mm 3 m/s 714 mmHg 20%
    02:00 +18°C° 0 mm 3 m/s 714 mmHg 21%
    03:00 +18°C° 0 mm 3 m/s 714 mmHg 21%
    04:00 +17°C° 0 mm 3 m/s 714 mmHg 22%
    05:00 +18°C° 0 mm 2 m/s 714 mmHg 22%
    06:00 +18°C° 0 mm 2 m/s 714 mmHg 21%
    07:00 +18°C° 0 mm 2 m/s 715 mmHg 21%
    08:00 +21°C° 0 mm 2 m/s 715 mmHg 18%
    09:00 +24°C° 0 mm 2 m/s 715 mmHg 15%
    10:00 +26°C° 0 mm 2 m/s 716 mmHg 12%
    11:00 +28°C° 0 mm 2 m/s 715 mmHg 11%
    12:00 +30°C° 0 mm 2 m/s 714 mmHg 9%
    13:00 +32°C° 0 mm 2 m/s 714 mmHg 8%
    14:00 +32°C° 0 mm 2 m/s 713 mmHg 8%
    15:00 +33°C° 0 mm 1 m/s 713 mmHg 8%
    16:00 +33°C° 0 mm 1 m/s 712 mmHg 7%
    17:00 +31°C° 0 mm 2 m/s 712 mmHg 8%
    18:00 +29°C° 0 mm 2 m/s 712 mmHg 10%
    19:00 +27°C° 0 mm 3 m/s 712 mmHg 11%
    20:00 +26°C° 0 mm 3 m/s 713 mmHg 11%
    21:00 +25°C° 0 mm 4 m/s 713 mmHg 12%
    22:00 +25°C° 0 mm 4 m/s 713 mmHg 13%
    23:00 +23°C° 0 mm 4 m/s 713 mmHg 14%

    Amanhã, 26 Fevereiro, Segunda-feira

    Tempo Temperatura Precipitação Vento Pressão Humidade
    00:00 +22°C° 0 mm 4 m/s 713 mmHg 15%
    01:00 +21°C° 0 mm 4 m/s 713 mmHg 16%
    02:00 +20°C° 0 mm 4 m/s 712 mmHg 17%
    03:00 +20°C° 0 mm 4 m/s 712 mmHg 17%
    04:00 +19°C° 0 mm 3 m/s 712 mmHg 18%
    05:00 +19°C° 0 mm 4 m/s 712 mmHg 18%
    06:00 +19°C° 0 mm 4 m/s 713 mmHg 18%
    07:00 +19°C° 0 mm 4 m/s 713 mmHg 17%
    08:00 +22°C° 0 mm 4 m/s 713 mmHg 15%
    09:00 +26°C° 0 mm 5 m/s 714 mmHg 13%
    10:00 +29°C° 0 mm 5 m/s 714 mmHg 10%
    11:00 +30°C° 0 mm 4 m/s 714 mmHg 9%
    12:00 +32°C° 0 mm 4 m/s 713 mmHg 9%
    13:00 +34°C° 0 mm 3 m/s 712 mmHg 8%
    14:00 +34°C° 0 mm 2 m/s 712 mmHg 8%
    15:00 +34°C° 0 mm 2 m/s 712 mmHg 8%
    16:00 +34°C° 0 mm 1 m/s 711 mmHg 8%
    17:00 +32°C° 0 mm 2 m/s 711 mmHg 9%
    18:00 +30°C° 0 mm 3 m/s 711 mmHg 10%
    19:00 +28°C° 0 mm 4 m/s 711 mmHg 11%
    20:00 +27°C° 0 mm 4 m/s 712 mmHg 12%
    21:00 +26°C° 0 mm 4 m/s 712 mmHg 12%
    22:00 +25°C° 0 mm 4 m/s 712 mmHg 13%
    23:00 +23°C° 0 mm 5 m/s 712 mmHg 16%

    Depois de amanhã, 27 Fevereiro, Terça-feira

    Tempo Temperatura Precipitação Vento Pressão Humidade
    00:00 +22°C° 0 mm 5 m/s 712 mmHg 19%
    01:00 +21°C° 0 mm 5 m/s 712 mmHg 22%
    02:00 +20°C° 0 mm 5 m/s 712 mmHg 24%
    03:00 +20°C° 0 mm 5 m/s 712 mmHg 27%
    04:00 +19°C° 0 mm 5 m/s 712 mmHg 30%
    05:00 +19°C° 0 mm 5 m/s 712 mmHg 31%
    06:00 +19°C° 0 mm 5 m/s 713 mmHg 31%
    07:00 +19°C° 0 mm 6 m/s 713 mmHg 31%
    08:00 +22°C° 0 mm 6 m/s 714 mmHg 27%
    09:00 +26°C° 0 mm 7 m/s 714 mmHg 23%
    10:00 +28°C° 0 mm 7 m/s 715 mmHg 19%
    11:00 +30°C° 0 mm 7 m/s 714 mmHg 17%
    12:00 +32°C° 0 mm 6 m/s 713 mmHg 15%
    13:00 +33°C° 0 mm 6 m/s 713 mmHg 13%
    14:00 +33°C° 0 mm 6 m/s 712 mmHg 12%
    15:00 +33°C° 0 mm 6 m/s 712 mmHg 12%
    16:00 +34°C° 0 mm 6 m/s 712 mmHg 12%
    17:00 +32°C° 0 mm 6 m/s 712 mmHg 14%
    18:00 +29°C° 0 mm 6 m/s 712 mmHg 17%
    19:00 +27°C° 0 mm 6 m/s 713 mmHg 19%
    20:00 +26°C° 0 mm 6 m/s 713 mmHg 21%
    21:00 +24°C° 0 mm 6 m/s 714 mmHg 23%
    22:00 +23°C° 0 mm 6 m/s 714 mmHg 24%
    23:00 +22°C° 0 mm 5 m/s 714 mmHg 26%

    28 Fevereiro, Quarta-feira

    Tempo Temperatura Precipitação Vento Pressão Humidade
    00:00 +21°C° 0 mm 5 m/s 713 mmHg 27%
    01:00 +21°C° 0 mm 5 m/s 713 mmHg 29%
    02:00 +20°C° 0 mm 5 m/s 713 mmHg 29%
    03:00 +19°C° 0 mm 5 m/s 713 mmHg 30%
    04:00 +19°C° 0 mm 4 m/s 713 mmHg 31%
    05:00 +19°C° 0 mm 4 m/s 714 mmHg 31%
    06:00 +19°C° 0 mm 4 m/s 714 mmHg 31%
    07:00 +19°C° 0 mm 4 m/s 715 mmHg 31%
    08:00 +22°C° 0 mm 5 m/s 715 mmHg 27%
    09:00 +26°C° 0 mm 5 m/s 716 mmHg 22%
    10:00 +28°C° 0 mm 5 m/s 716 mmHg 17%
    11:00 +30°C° 0 mm 5 m/s 716 mmHg 15%
    12:00 +32°C° 0 mm 5 m/s 715 mmHg 13%
    13:00 +33°C° 0 mm 5 m/s 714 mmHg 10%
    14:00 +33°C° 0 mm 6 m/s 714 mmHg 10%
    15:00 +33°C° 0 mm 6 m/s 714 mmHg 10%
    16:00 +33°C° 0 mm 6 m/s 713 mmHg 10%
    17:00 +30°C° 0 mm 5 m/s 714 mmHg 11%
    18:00 +28°C° 0 mm 5 m/s 714 mmHg 13%
    19:00 +26°C° 0 mm 4 m/s 714 mmHg 15%
    20:00 +25°C° 0 mm 4 m/s 715 mmHg 16%
    21:00 +23°C° 0 mm 5 m/s 715 mmHg 17%
    22:00 +22°C° 0 mm 5 m/s 715 mmHg 18%
    23:00 +22°C° 0 mm 4 m/s 715 mmHg 19%

    1 Março, Quinta-feira

    Tempo Temperatura Precipitação Vento Pressão Humidade
    00:00 +21°C° 0 mm 4 m/s 715 mmHg 20%
    01:00 +20°C° 0 mm 4 m/s 715 mmHg 21%
    02:00 +20°C° 0 mm 4 m/s 715 mmHg 22%
    03:00 +19°C° 0 mm 4 m/s 715 mmHg 22%
    04:00 +19°C° 0 mm 4 m/s 714 mmHg 23%
    05:00 +19°C° 0 mm 4 m/s 715 mmHg 23%
    06:00 +19°C° 0 mm 3 m/s 715 mmHg 23%
    07:00 +19°C° 0 mm 3 m/s 716 mmHg 22%
    08:00 +22°C° 0 mm 4 m/s 716 mmHg 19%
    09:00 +26°C° 0 mm 5 m/s 717 mmHg 16%
    10:00 +28°C° 0 mm 6 m/s 717 mmHg 13%
    11:00 +29°C° 0 mm 6 m/s 717 mmHg 12%
    12:00 +30°C° 0 mm 5 m/s 716 mmHg 11%
    13:00 +32°C° 0 mm 5 m/s 715 mmHg 10%
    14:00 +32°C° 0 mm 5 m/s 715 mmHg 9%
    15:00 +32°C° 0 mm 5 m/s 714 mmHg 9%
    16:00 +32°C° 0 mm 5 m/s 714 mmHg 9%
    17:00 +29°C° 0 mm 4 m/s 714 mmHg 10%
    18:00 +27°C° 0 mm 4 m/s 714 mmHg 12%
    19:00 +25°C° 0 mm 3 m/s 714 mmHg 13%
    20:00 +25°C° 0 mm 3 m/s 715 mmHg 13%
    21:00 +24°C° 0 mm 3 m/s 715 mmHg 14%
    22:00 +22°C° 0 mm 3 m/s 715 mmHg 15%
    23:00 +21°C° 0 mm 3 m/s 715 mmHg 15%

    2 Março, Sexta-feira

    Tempo Temperatura Precipitação Vento Pressão Humidade
    00:00 +21°C° 0 mm 3 m/s 714 mmHg 15%
    01:00 +20°C° 0 mm 3 m/s 714 mmHg 15%
    02:00 +20°C° 0 mm 3 m/s 714 mmHg 16%
    03:00 +19°C° 0 mm 3 m/s 714 mmHg 16%
    04:00 +18°C° 0 mm 3 m/s 714 mmHg 16%
    05:00 +18°C° 0 mm 3 m/s 714 mmHg 17%
    06:00 +19°C° 0 mm 3 m/s 714 mmHg 17%
    07:00 +19°C° 0 mm 3 m/s 715 mmHg 17%
    08:00 +21°C° 0 mm 3 m/s 715 mmHg 15%
    09:00 +25°C° 0 mm 4 m/s 715 mmHg 13%
    10:00 +28°C° 0 mm 5 m/s 716 mmHg 11%
    11:00 +29°C° 0 mm 4 m/s 715 mmHg 10%
    12:00 +30°C° 0 mm 3 m/s 715 mmHg 9%
    13:00 +31°C° 0 mm 2 m/s 714 mmHg 8%
    14:00 +31°C° 0 mm 2 m/s 714 mmHg 8%
    15:00 +31°C° 0 mm 2 m/s 713 mmHg 8%
    16:00 +32°C° 0 mm 1 m/s 713 mmHg 7%
    17:00 +29°C° 0 mm 2 m/s 713 mmHg 9%
    18:00 +27°C° 0 mm 2 m/s 713 mmHg 10%
    19:00 +25°C° 0 mm 2 m/s 713 mmHg 11%
    20:00 +24°C° 0 mm 2 m/s 713 mmHg 12%
    21:00 +24°C° 0 mm 3 m/s 713 mmHg 12%
    22:00 +24°C° 0 mm 3 m/s 713 mmHg 12%
    23:00 +22°C° 0 mm 3 m/s 713 mmHg 13%
    Mostrar mais